星链-34028 (STARLINK-34028)

导读

STARLINK-34028是美国SpaceX星链(Starlink)星座的卫星,于2025年5月13日由美国发射入轨。星链项目计划在近地轨道部署数万颗卫星,旨在为全球提供高速互联网接入服务,覆盖偏远地区、海洋等网络盲区。STARLINK-34028加入星链星座后,将进一步增强星座的通信服务能力,推动全球无缝互联覆盖。

Basic Information
目录编号:
63973
目录名称:
STARLINK-34028
国际标识:
2025-099X
轨道中心:
EARTH
卫星名称:
星链-34028
卫星全名:
星链-34028 (STARLINK-34028)
卫星状态:
在轨 (已飞行479 天)
发射日期:
2025-05-13 UTC
国别 :
美国 (US)
星等 :
--
Orbit Information
数据来源 国际轨道数据
星历时间: 2026-09-03T14:41:47+0800
23小时前
查看轨道信息
半长轴: 6861.178km
偏心率: 0.0002006
轨道倾角: 43.002°
近地点辐角 285.510°
升交点赤经 250.051°
平近点角 74.553°
近地点: 481.664km
远地点: 484.418km
周期: 94.267分钟
每日圈数: 15.27583
Detailed Information
固有亮度:
5
最大亮度:
2.5
卫星平台:
Starlink V1.0
覆盖范围:
全球
运营商:
太空探索技术公司
运营商所在国:
美国
制造商(研发单位):
太空探索技术公司
制造商所在国:
美国
使用方式:
暂无
Satellite Introduction
Starlink 计划是 SpaceX 推出的全球卫星互联网项目,通过发射低轨道卫星,为全球尤其是偏远地区提供高速、低延迟的互联网服务。自 2019 年起,Starlink 已部署数千颗卫星,旨在缩小全球数字鸿沟,推动互联网普及。该项目还为军事、航空等行业提供通信支持,带来广泛经济效益。
2D Orbit Map
3D Orbit Map
Orbit Altitude Analysis Chart
Orbit Inclination Analysis Chart
Orbit Comprehensive Analysis Chart
View Comprehensive Chart
Conjunction Data List
Event ID Objects TCA Miss Dist (km) Collision Risk Probability Collision Risk Index (CRI) Action
CDM_260904-205405-840906-397322
2026-09-04T
20:54:58+0000
0.478 km
远距离
1.543864E-4 高风险 0.79
CDM_260905-114905-840906-397321
2026-09-05T
11:49:26+0000
0.768 km
远距离
4.104324E-5 中风险 0.67
CDM_260904-192005-840906-397322
2026-09-04T
19:20:49+0000
1.331 km
极远距离
6.350521E-6 低风险 0.51
CDM_260903-080105-276006-397322
2026-09-03T
08:01:28+0000
2.331 km
极远距离
1.912845E-6 低风险 0.41
CDM_260905-132305-840906-397321
2026-09-05T
13:23:35+0000
2.052 km
极远距离
1.778348E-6 低风险 0.4
CDM_260904-222905-840906-397322
2026-09-04T
22:29:07+0000
2.227 km
极远距离
1.483169E-6 低风险 0.38
CDM_260905-101505-840906-397321
2026-09-05T
10:15:17+0000
2.418 km
极远距离
1.262149E-6 低风险 0.37